Soldotna, AK

2:16 AM AKST on February 22, 2017 (GMT -0900)
Soldotna

Weather History for PASX - July, 2012

Change the Weather History Date:

Sunday, July 29, 2012

  Actual Average Record
Temperature  
Mean Temperature 56 °F -  
Max Temperature 60 °F 62 °F 78 °F (1977)
Min Temperature 51 °F 48 °F 35 °F (1971)
Degree Days  
Heating Degree Days 10    
Growing Degree Days 6 (Base 50)    
Moisture  
Dew Point 47 °F    
Average Humidity 75    
Maximum Humidity 88    
Minimum Humidity 59    
Precipitation  
Precipitation 0.00 in - - ()
Sea Level Pressure  
Sea Level Pressure 29.93 in    
Wind  
Wind Speed 3 mph (NW)    
Max Wind Speed 12 mph    
Max Gust Speed -    
Visibility 10 miles    
Events      
Averages and records for this station are not official NWS values.
T = Trace of Precipitation, MM = Missing Value Source: NWS Daily Summary

Daily Weather History Graph

Daily Weather History Graph

Search for Another Location

Airport or City:

Trip Planner

Search our weather history database for the weather conditions in past years. The results will help you decide how hot, cold, wet, or windy it might be!

Date:

Astronomy

Jul. 29, 2012 Rise Set
Actual Time 5:36 AM AKDT 10:43 PM AKDT
Civil Twilight 4:31 AM AKDT 11:47 PM AKDT
Nautical Twilight 2:43 AM AKDT 1:38 AM AKDT
Astronomical Twilight Sun does not rise Sun does not rise
Moon 8:18 PM AKDT (7/29) 1:39 AM AKDT (7/29)
Length of Visible Light 19h 15m
Length of Day
17h 07m
Waxing Gibbous, 86% of the Moon is Illuminated
Jul 29
Waxing Gibbous
Aug 1
Full
Aug 9
Last Quarter
Aug 17
New
Aug 24
First Quarter

Hourly Weather History & Observations

Time (AKDT) Temp. Dew Point Humidity Pressure Visibility Wind Dir Wind Speed Gust Speed Precip Events Conditions
12:16 AM 53.6 °F 48.2 °F 82% 29.98 in 10.0 mi Calm Calm - N/A   Partly Cloudy
12:36 AM 55.4 °F 48.2 °F 77% 29.99 in 10.0 mi West 3.5 mph - N/A   Clear
12:56 AM 53.6 °F 48.2 °F 82% 29.98 in 10.0 mi Calm Calm - N/A   Clear
1:16 AM 51.8 °F 46.4 °F 82% 29.99 in 10.0 mi Calm Calm - N/A   Mostly Cloudy
1:36 AM 51.8 °F 48.2 °F 88% 29.99 in 10.0 mi Calm Calm - N/A   Overcast
1:56 AM 53.6 °F 48.2 °F 82% 29.99 in 10.0 mi Calm Calm - N/A   Overcast
2:16 AM 53.6 °F 48.2 °F 82% 29.99 in 10.0 mi Calm Calm - N/A   Overcast
2:36 AM 51.8 °F 46.4 °F 82% 29.99 in 10.0 mi Calm Calm - N/A   Overcast
2:56 AM 53.6 °F 48.2 °F 82% 29.99 in 10.0 mi Calm Calm - N/A   Overcast
3:16 AM 51.8 °F 46.4 °F 82% 29.99 in 10.0 mi Calm Calm - N/A   Overcast
3:36 AM 51.8 °F 48.2 °F 88% 29.99 in 10.0 mi Calm Calm - N/A   Overcast
3:56 AM 51.8 °F 46.4 °F 82% 29.99 in 10.0 mi Calm Calm - N/A   Overcast
4:16 AM 51.8 °F 46.4 °F 82% 29.98 in 10.0 mi ESE 3.5 mph - N/A   Overcast
4:36 AM 53.6 °F 48.2 °F 82% 29.98 in 10.0 mi Calm Calm - N/A   Overcast
4:56 AM 53.6 °F 46.4 °F 77% 29.98 in 10.0 mi Calm Calm - N/A   Overcast
5:16 AM 51.8 °F 48.2 °F 88% 29.98 in 10.0 mi Calm Calm - N/A   Overcast
5:36 AM 53.6 °F 48.2 °F 82% 29.98 in 10.0 mi Calm Calm - N/A   Overcast
5:56 AM 51.8 °F 46.4 °F 82% 29.98 in 10.0 mi Calm Calm - N/A   Overcast
6:16 AM 51.8 °F 46.4 °F 82% 29.98 in 10.0 mi Calm Calm - N/A   Overcast
6:56 AM 51.8 °F 48.2 °F 88% 29.97 in 10.0 mi Calm Calm - N/A   Overcast
7:16 AM 51.8 °F 48.2 °F 88% 29.97 in 10.0 mi Calm Calm - N/A   Overcast
7:36 AM 53.6 °F 50.0 °F 88% 29.96 in 10.0 mi Calm Calm - N/A   Overcast
7:56 AM 53.6 °F 48.2 °F 82% 29.96 in 10.0 mi Calm Calm - N/A   Overcast
8:16 AM 55.4 °F 50.0 °F 82% 29.96 in 10.0 mi Calm Calm - N/A   Overcast
8:36 AM 55.4 °F 50.0 °F 82% 29.96 in 10.0 mi NW 3.5 mph - N/A   Overcast
8:56 AM 55.4 °F 50.0 °F 82% 29.96 in 10.0 mi WNW 4.6 mph - N/A   Overcast
9:16 AM 55.4 °F 48.2 °F 77% 29.95 in 10.0 mi WNW 5.8 mph - N/A   Mostly Cloudy
9:36 AM 55.4 °F 48.2 °F 77% 29.95 in 10.0 mi West 5.8 mph - N/A   Partly Cloudy
9:56 AM 55.4 °F 48.2 °F 77% 29.95 in 10.0 mi WNW 4.6 mph - N/A   Clear
10:16 AM 55.4 °F 48.2 °F 77% 29.95 in 10.0 mi NNW 3.5 mph - N/A   Clear
10:36 AM 57.2 °F 48.2 °F 72% 29.95 in 10.0 mi WNW 3.5 mph - N/A   Clear
10:56 AM 59.0 °F 46.4 °F 63% 29.95 in 10.0 mi North 4.6 mph - N/A   Clear
11:16 AM 60.8 °F 46.4 °F 59% 29.94 in 10.0 mi NNE 5.8 mph - N/A   Clear
11:36 AM 60.8 °F 46.4 °F 59% 29.93 in 10.0 mi West 10.4 mph - N/A   Mostly Cloudy
11:56 AM 60.8 °F 48.2 °F 63% 29.93 in 10.0 mi NW 8.1 mph - N/A   Overcast
12:16 PM 60.8 °F 48.2 °F 63% 29.93 in 10.0 mi WNW 8.1 mph - N/A   Overcast
12:36 PM 60.8 °F 48.2 °F 63% 29.93 in 10.0 mi West 11.5 mph - N/A   Overcast
12:56 PM 60.8 °F 48.2 °F 63% 29.93 in 10.0 mi WNW 11.5 mph - N/A   Overcast
1:16 PM 59.0 °F 48.2 °F 67% 29.93 in 10.0 mi WNW 6.9 mph - N/A   Overcast
1:36 PM 59.0 °F 46.4 °F 63% 29.93 in 10.0 mi West 11.5 mph - N/A   Overcast
1:56 PM 59.0 °F 46.4 °F 63% 29.93 in 10.0 mi WNW 9.2 mph - N/A   Overcast
2:16 PM 60.8 °F 46.4 °F 59% 29.92 in 10.0 mi West 9.2 mph - N/A   Overcast
2:36 PM 59.0 °F 46.4 °F 63% 29.92 in 10.0 mi West 8.1 mph - N/A   Overcast
2:56 PM 59.0 °F 46.4 °F 63% 29.92 in 10.0 mi West 9.2 mph - N/A   Overcast
3:16 PM 57.2 °F 46.4 °F 67% 29.92 in 10.0 mi WNW 8.1 mph - N/A   Overcast
3:36 PM 57.2 °F 46.4 °F 67% 29.92 in 10.0 mi West 9.2 mph - N/A   Overcast
3:56 PM 57.2 °F 46.4 °F 67% 29.91 in 10.0 mi NW 6.9 mph - N/A   Overcast
4:16 PM 57.2 °F 46.4 °F 67% 29.91 in 10.0 mi NNW 5.8 mph - N/A   Overcast
4:36 PM 57.2 °F 46.4 °F 67% 29.90 in 10.0 mi NNW 5.8 mph - N/A   Overcast
4:56 PM 57.2 °F 46.4 °F 67% 29.90 in 10.0 mi NW 4.6 mph - N/A   Overcast
5:16 PM 57.2 °F 46.4 °F 67% 29.89 in 10.0 mi WNW 5.8 mph - N/A   Overcast
5:36 PM 57.2 °F 46.4 °F 67% 29.89 in 10.0 mi NW 5.8 mph - N/A   Overcast
5:56 PM 57.2 °F 46.4 °F 67% 29.88 in 10.0 mi NNW 4.6 mph - N/A   Overcast
6:16 PM 55.4 °F 46.4 °F 72% 29.88 in 10.0 mi NNW 4.6 mph - N/A   Overcast
6:36 PM 57.2 °F 46.4 °F 67% 29.87 in 10.0 mi NW 5.8 mph - N/A   Overcast
6:56 PM 55.4 °F 44.6 °F 67% 29.87 in 10.0 mi NNW 3.5 mph - N/A   Overcast
7:16 PM 55.4 °F 46.4 °F 72% 29.87 in 10.0 mi North 3.5 mph - N/A   Overcast
7:36 PM 55.4 °F 46.4 °F 72% 29.86 in 10.0 mi Calm Calm - N/A   Overcast
7:56 PM 55.4 °F 46.4 °F 72% 29.86 in 10.0 mi NW 3.5 mph - N/A   Overcast
8:16 PM 55.4 °F 46.4 °F 72% 29.86 in 10.0 mi NNW 3.5 mph - N/A   Overcast
8:36 PM 55.4 °F 44.6 °F 67% 29.85 in 10.0 mi NNW 3.5 mph - N/A   Overcast
8:56 PM 55.4 °F 46.4 °F 72% 29.85 in 10.0 mi NNW 4.6 mph - N/A   Overcast
9:16 PM 53.6 °F 46.4 °F 77% 29.85 in 10.0 mi Calm Calm - N/A   Overcast
9:36 PM 53.6 °F 46.4 °F 77% 29.85 in 10.0 mi WNW 3.5 mph - N/A   Overcast
9:56 PM 53.6 °F 46.4 °F 77% 29.85 in 10.0 mi NW 4.6 mph - N/A   Overcast
10:16 PM 53.6 °F 46.4 °F 77% 29.85 in 10.0 mi NW 5.8 mph - N/A   Overcast
10:36 PM 51.8 °F 46.4 °F 82% 29.85 in 10.0 mi NNW 3.5 mph - N/A   Overcast
10:56 PM 51.8 °F 48.2 °F 88% 29.86 in 10.0 mi NW 3.5 mph - N/A   Overcast
11:16 PM 51.8 °F 48.2 °F 88% 29.85 in 10.0 mi NW 5.8 mph - N/A   Overcast
11:36 PM 51.8 °F 48.2 °F 88% 29.85 in 10.0 mi WNW 5.8 mph - N/A   Overcast
11:56 PM 51.8 °F 48.2 °F 88% 29.85 in 10.0 mi WNW 4.6 mph - N/A   Overcast